Change the Weather History Date:

Monday, April 7, 2014

  Actual Average (KTUP) Record (KTUP)
Temperature  
Mean Temperature 53 °F 60 °F  
Max Temperature 62 °F 72 °F 90 °F (1948)
Min Temperature 44 °F 48 °F 28 °F (1982)
Degree Days  
Heating Degree Days 12 7  
Month to date heating degree days 51  
Since 1 July heating degree days 2837  
Cooling Degree Days 0 1  
Month to date cooling degree days 7  
Year to date cooling degree days 23  
Growing Degree Days 3 (Base 50)    
Moisture  
Dew Point 51 °F    
Average Humidity 89    
Maximum Humidity 97    
Minimum Humidity 71    
Precipitation  
Precipitation 0.20 in 0.16 in 1.70 in (2006)
Month to date precipitation 1.04  
Year to date precipitation 15.30  
Snow  
Snow 0.00 in 0.00 in - ()
Month to date snowfall 0.0  
Since 1 July snowfall 2.1  
Snow Depth -    
Sea Level Pressure  
Sea Level Pressure 29.70 in    
Wind  
Wind Speed 9 mph (SW)    
Max Wind Speed 16 mph    
Max Gust Speed 25 mph    
Visibility 9 miles    
Events Rain , Thunderstorm    
T = Trace of Precipitation, MM = Missing Value Source: NWS Daily Summary

Daily Weather History Graph

Daily Weather History Graph

Search for Another Location

Airport or City:

Trip Planner

Search our weather history database for the weather conditions in past years. The results will help you decide how hot, cold, wet, or windy it might be!

Date:

Astronomy

Apr. 07, 2014 Rise Set
Actual Time 6:31 AM CDT 7:18 PM CDT
Civil Twilight 6:06 AM CDT 7:44 PM CDT
Nautical Twilight 5:36 AM CDT 8:14 PM CDT
Astronomical Twilight 5:05 AM CDT 8:45 PM CDT
Moon 12:33 PM CDT (4/7) 1:48 AM CDT (4/7)
Length of Visible Light 13h 37m
Length of Day
12h 46m
First Quarter, 53% of the Moon is Illuminated
Apr 7
First Quarter
Apr 15
Full
Apr 22
Last Quarter
Apr 29
New
May 6
First Quarter

Hourly Weather History & Observations

Time (CDT) Temp. Windchill Dew Point Humidity Pressure Visibility Wind Dir Wind Speed Gust Speed Precip Events Conditions
12:15 AM 54.5 °F - 53.4 °F 96% 29.67 in 7.0 mi East 10.4 mph - 0.04 in Rain Rain
12:35 AM 54.7 °F - 53.8 °F 97% 29.65 in 10.0 mi ESE 8.1 mph 16.1 mph 0.07 in Rain Light Rain
12:55 AM 55.6 °F - 54.1 °F 95% 29.68 in 10.0 mi SE 16.1 mph 23.0 mph 0.10 in Rain Rain
1:15 AM 55.6 °F - 54.0 °F 94% 29.65 in 10.0 mi East 9.2 mph 17.3 mph 0.02 in Rain Rain
1:35 AM 55.8 °F - 53.8 °F 93% 29.68 in 10.0 mi East 4.6 mph - 0.03 in Rain Light Rain
1:55 AM 55.0 °F - 54.0 °F 96% 29.65 in 10.0 mi East 9.2 mph - 0.06 in Rain Rain
2:15 AM 54.9 °F - 53.8 °F 96% 29.65 in 10.0 mi East 6.9 mph - N/A Rain Light Rain
2:35 AM 54.7 °F - 53.8 °F 97% 29.65 in 10.0 mi SE 3.5 mph - 0.01 in Rain Light Rain
2:55 AM 55.0 °F - 54.0 °F 96% 29.66 in 10.0 mi Calm Calm - 0.01 in   Overcast
3:15 AM 54.9 °F - 54.1 °F 97% 29.65 in 10.0 mi SE 3.5 mph - N/A Thunderstorm Overcast
3:35 AM 55.8 °F - 55.0 °F 97% 29.63 in 10.0 mi SE 5.8 mph - N/A   Overcast
3:55 AM 56.5 °F - 55.8 °F 97% 29.61 in 10.0 mi SE 6.9 mph - N/A Thunderstorm Overcast
4:15 AM 57.7 °F - 56.8 °F 97% 29.59 in 10.0 mi SSE 6.9 mph - N/A   Overcast
4:35 AM 58.8 °F - 57.9 °F 97% 29.57 in 10.0 mi SSE 8.1 mph - N/A   Overcast
4:55 AM 59.4 °F - 58.3 °F 96% 29.57 in 10.0 mi SSE 8.1 mph - N/A   Overcast
5:15 AM 59.9 °F - 58.6 °F 96% 29.58 in 10.0 mi SSE 9.2 mph - N/A   Overcast
5:35 AM 60.4 °F - 59.0 °F 95% 29.57 in 10.0 mi SSE 8.1 mph - N/A   Overcast
5:55 AM 61.3 °F - 59.5 °F 94% 29.58 in 10.0 mi South 10.4 mph 17.3 mph N/A   Overcast
6:15 AM 61.7 °F - 59.5 °F 93% 29.56 in 10.0 mi SSE 10.4 mph 17.3 mph N/A   Overcast
6:35 AM 61.7 °F - 59.7 °F 93% 29.58 in 10.0 mi South 10.4 mph - N/A   Overcast
7:15 AM 62.1 °F - 59.9 °F 93% 29.57 in 10.0 mi South 8.1 mph - N/A   Overcast
7:35 AM 62.1 °F - 59.9 °F 93% 29.55 in 10.0 mi South 10.4 mph - N/A   Overcast
7:55 AM 62.6 °F - 60.3 °F 92% 29.56 in 10.0 mi South 9.2 mph 17.3 mph N/A   Overcast
8:15 AM 61.9 °F - 60.8 °F 96% 29.56 in 2.0 mi South 10.4 mph 20.7 mph 0.01 in   Heavy Drizzle
8:35 AM 61.7 °F - 60.8 °F 97% 29.58 in 1.8 mi SSW 10.4 mph 20.7 mph 0.01 in   Heavy Drizzle
8:55 AM 61.7 °F - 60.8 °F 97% 29.59 in 1.8 mi SW 8.1 mph - 0.03 in   Heavy Drizzle
9:15 AM 61.2 °F - 59.7 °F 95% 29.60 in 4.0 mi SW 15.0 mph 23.0 mph N/A   Drizzle
9:35 AM 59.7 °F - 57.6 °F 93% 29.61 in 7.0 mi SW 13.8 mph 21.9 mph N/A   Overcast
9:55 AM 58.5 °F - 57.2 °F 96% 29.61 in 3.0 mi WSW 10.4 mph 20.7 mph N/A   Drizzle
10:15 AM 57.0 °F - 55.6 °F 95% 29.61 in 5.0 mi West 8.1 mph 19.6 mph N/A   Light Drizzle
10:35 AM 56.5 °F - 54.5 °F 93% 29.63 in 10.0 mi WSW 13.8 mph 23.0 mph N/A   Overcast
11:15 AM 56.3 °F - 52.7 °F 88% 29.64 in 10.0 mi WSW 11.5 mph 21.9 mph N/A   Overcast
11:35 AM 55.2 °F - 51.1 °F 86% 29.65 in 10.0 mi WSW 10.4 mph 20.7 mph N/A   Overcast
11:55 AM 53.4 °F - 50.2 °F 89% 29.67 in 7.0 mi WSW 11.5 mph 19.6 mph N/A Rain Rain
12:15 PM 52.9 °F - 49.6 °F 89% 29.68 in 10.0 mi WSW 13.8 mph 20.7 mph N/A   Overcast
12:35 PM 53.2 °F - 49.3 °F 86% 29.68 in 10.0 mi WSW 6.9 mph 19.6 mph N/A   Overcast
12:55 PM 52.7 °F - 48.6 °F 86% 29.69 in 10.0 mi WSW 9.2 mph 19.6 mph N/A   Overcast
1:15 PM 53.6 °F - 48.6 °F 83% 29.69 in 10.0 mi WSW 8.1 mph 18.4 mph N/A   Overcast
1:35 PM 53.6 °F - 48.0 °F 81% 29.69 in 10.0 mi WSW 12.7 mph 24.2 mph N/A   Overcast
1:55 PM 53.4 °F - 48.0 °F 82% 29.69 in 10.0 mi WSW 8.1 mph - N/A   Overcast
2:15 PM 54.3 °F - 47.5 °F 78% 29.70 in 10.0 mi West 11.5 mph 16.1 mph N/A   Overcast
2:35 PM 53.8 °F - 47.1 °F 78% 29.70 in 10.0 mi West 10.4 mph 20.7 mph N/A   Overcast
2:55 PM 55.6 °F - 48.2 °F 76% 29.69 in 10.0 mi WSW 10.4 mph 17.3 mph N/A   Mostly Cloudy
3:15 PM 55.4 °F - 46.2 °F 71% 29.70 in 10.0 mi West 12.7 mph 25.3 mph N/A   Mostly Cloudy
3:55 PM 54.5 °F - 45.9 °F 73% 29.71 in 10.0 mi WSW 6.9 mph 17.3 mph N/A   Overcast
4:15 PM 55.0 °F - 46.0 °F 72% 29.72 in 10.0 mi West 13.8 mph 23.0 mph N/A   Overcast
4:35 PM 54.3 °F - 45.5 °F 72% 29.73 in 10.0 mi WSW 9.2 mph 21.9 mph N/A   Overcast
4:55 PM 54.1 °F - 45.7 °F 73% 29.74 in 10.0 mi West 11.5 mph 18.4 mph N/A   Mostly Cloudy
5:15 PM 52.7 °F - 45.3 °F 76% 29.76 in 10.0 mi West 13.8 mph 21.9 mph N/A   Overcast
5:35 PM 51.6 °F - 45.1 °F 79% 29.78 in 10.0 mi West 11.5 mph 19.6 mph N/A   Overcast
5:55 PM 50.2 °F - 44.6 °F 81% 29.79 in 10.0 mi West 10.4 mph 18.4 mph N/A   Overcast
6:15 PM 49.5 °F - 44.2 °F 82% 29.80 in 10.0 mi West 8.1 mph 19.6 mph N/A   Overcast
6:35 PM 49.1 °F - 44.2 °F 83% 29.81 in 10.0 mi West 6.9 mph 16.1 mph N/A   Overcast
6:55 PM 48.6 °F - 44.1 °F 84% 29.81 in 10.0 mi West 10.4 mph - N/A   Overcast
7:15 PM 48.4 °F - 43.9 °F 84% 29.82 in 10.0 mi West 5.8 mph - N/A   Overcast
7:35 PM 48.2 °F - 43.9 °F 85% 29.83 in 10.0 mi West 5.8 mph - N/A   Overcast
7:55 PM 48.2 °F - 43.7 °F 84% 29.84 in 10.0 mi West 5.8 mph - N/A   Overcast
8:15 PM 48.2 °F - 43.7 °F 84% 29.85 in 10.0 mi West 6.9 mph - N/A   Overcast
8:55 PM 47.8 °F - 42.8 °F 83% 29.87 in 10.0 mi NW 6.9 mph - N/A   Overcast
9:15 PM 47.5 °F - 42.8 °F 84% 29.88 in 10.0 mi NW 5.8 mph - N/A   Overcast
9:35 PM 46.4 °F 45.2 °F 42.6 °F 87% 29.88 in 10.0 mi WNW 3.5 mph - N/A   Mostly Cloudy
9:55 PM 45.9 °F - 42.8 °F 89% 29.89 in 10.0 mi Calm Calm - N/A   Mostly Cloudy
10:15 PM 46.4 °F - 43.2 °F 88% 29.88 in 10.0 mi Calm Calm - N/A   Overcast
10:35 PM 46.4 °F - 43.2 °F 88% 29.89 in 10.0 mi Calm Calm - N/A   Overcast
10:55 PM 46.4 °F - 43.3 °F 89% 29.89 in 10.0 mi Calm Calm - N/A   Overcast
11:15 PM 45.1 °F 43.7 °F 42.8 °F 91% 29.89 in 10.0 mi WSW 3.5 mph - N/A   Scattered Clouds
11:35 PM 44.6 °F 43.1 °F 42.4 °F 92% 29.90 in 10.0 mi West 3.5 mph - N/A   Clear
11:55 PM 44.6 °F - 42.8 °F 93% 29.89 in 10.0 mi Calm Calm - N/A   Scattered Clouds